Regional Weather Roundup
Issued by NWS

Home | Current Version | Previous Version | Text Only | Print | Product List | Glossary Off
Versions: 1 2 3 4 5 6 7 8 9 10 11 12 13 14 15 16 17 18 19 20 21 22 23 24 25 26 27 28 29 30 31 32 33 34 35 36 37 38 39 40 41 42 43 44 45 46 47 48 49 50

000
ASUS43 KDTX 161010
RWRMI
MICHIGAN HOURLY REGIONAL WEATHER ROUNDUP
NATIONAL WEATHER SERVICE DETROIT/PONTIAC MI
500 AM EST TUE JAN 16 2018

NOTE: "FAIR" INDICATES FEW OR NO CLOUDS BELOW 12,000 FEET WITH NO
SIGNIFICANT WEATHER AND/OR OBSTRUCTION TO VISIBILITY.

MIZ047>049-052>055-059>063-066>070-074>076-081>083-161100-
SOUTHEAST LOWER MICHIGAN

CITY           SKY/WX    TMP DP  RH WIND       PRES   REMARKS
ADRIAN         CLOUDY    11   7  84 W6        30.35S WCI   1
ALMA           FAIR       0  -3  87 CALM      30.33R
ANN ARBOR      LGT SNOW  13   9  84 SW10      30.32R FOG     WCI   0
BAD AXE        MOCLDY     4   1  88 CALM      30.30R
CARO           FOG        5   3  90 CALM      30.31R VSB 1/4
DETROIT CITY   LGT SNOW  17  13  84 SW7       30.33R FOG     WCI   8
DETROIT        FLURRIES  16  11  80 SW13      30.34R WCI   2
FLINT          CLOUDY    14  11  87 CALM      30.31R
GROSSE ILE     FLURRIES  16  12  84 SW10      30.34R WCI   3
HILLSDALE      FLURRIES   9   3  78 SW9       30.30S WCI  -5
HOWELL         LGT SNOW  15  13  91 W8        30.29S WCI   4

CITY           SKY/WX    TMP DP  RH WIND       PRES   REMARKS
JACKSON        LGT SNOW  10   6  84 W9        30.31R FOG     WCI  -3
LAMBERTVILLE   LGT SNOW  10   5  80 SW9       30.37R WCI  -3
LANSING        LGT SNOW  15  13  91 W5        30.32R FOG     WCI   8
LAPEER         FLURRIES   2  -3  83 CALM      30.30S
MASON          LGT SNOW  14   8  78 W5        30.30S WCI   7
MONROE         FLURRIES  12   6  78 SW10      30.35R WCI  -1
MT. CLEMENS    FLURRIES  21  21  99 SW6       30.30R WCI  14
PONTIAC        LGT SNOW  18  16  92 W3        30.27S FOG
PORT HOPE        N/A     19  16  88 W3        30.28R
PORT HURON     LGT SNOW  14  12  92 CALM      30.32R
TRI CITIES     FAIR       7   6  96 W3        30.33R FOG
MIDLAND        MOCLDY     5   1  85 CALM      30.32S
TROY           LGT SNOW  20  18  90 SW6       30.32S WCI  13
SAGINAW HB     CLOUDY     5   3  92 CALM      30.33R FOG
$$
MIZ043>046-050>051-056>058-064>065-071>073-077>080-161100-
SOUTHWEST LOWER MICHIGAN

CITY           SKY/WX    TMP DP  RH WIND       PRES   REMARKS
BATTLE CREEK   LGT SNOW  10   5  80 SW8       30.32R WCI  -2
BENTON HARBOR  LGT SNOW   7   1  76 S10       30.34S WCI  -8
BIG RAPIDS     CLOUDY    11   7  84 CALM      30.30R
COLDWATER      MOCLDY     2  -1  85 S7        30.34R WCI -10
FREMONT        CLOUDY    13   7  79 CALM      30.33R
HOLLAND        LGT SNOW  13   9  84 S5        30.32S FOG     WCI   5
GRAND RAPIDS   LGT SNOW  15  10  80 SW5       30.32R WCI   8
IONIA          LGT SNOW  15  13  92 CALM      30.31S
KALAMAZOO      LGT SNOW   8   5  87 S9        30.33R FOG     WCI  -5
LUDINGTON      FAIR       9   8  93 CALM      30.35S
MARSHALL       LGT SNOW   8   4  83 SW6       30.32R WCI  -2
MOUNT PLEASANT FAIR       9   5  81 CALM      30.31S
MUSKEGON       LGT SNOW  13   8  81 NE6       30.34S WCI   4
SOUTH HAVEN    LGT SNOW   9   4  83 S8        30.33R WCI  -4
$$
MIZ016>042-161100-
NORTHERN LOWER MICHIGAN

CITY           SKY/WX    TMP DP  RH WIND       PRES   REMARKS
ALPENA         LGT SNOW  17  15  92 N12       30.35R FOG     WCI   4
BEAVER ISLAND  FAIR      12   8  85 CALM      30.41R
BELLAIRE       FLURRIES  13  12  95 CALM      30.38R
CADILLAC       FAIR       9   7  90 CALM      30.28R
CHARLEVOIX     FAIR      15  11  85 NE7       30.42R WCI   5
FRANKFORT      FAIR      16  13  88 NE3       30.37S
GAYLORD        LGT SNOW  11  11 100 VRB3      30.30S FOG
GRAYLING         N/A      9   6  87 N3        30.31R
HARBOR SPRINGS FAIR      11   8  84 NE8       30.38S WCI   0
HOUGHTON LAKE  MOCLDY    12   9  87 NE8       30.29R WCI   0
MANISTEE       FAIR       0  -4  83 CALM      30.36R
OSCODA         CLOUDY    18  15  89 NW6       30.30R WCI  10
PELLSTON       MOCLDY     6   4  91 CALM      30.40R FOG
ROGERS CITY    LGT SNOW  16  12  83 NE8       30.38S WCI   6
TRAVERSE CITY  CLOUDY    19  13  77 NE8       30.36R WCI   9
$$
MIZ007>008-015-161100-
EASTERN UPPER MICHIGAN

CITY           SKY/WX    TMP DP  RH WIND       PRES   REMARKS
KINROSS        FAIR       6   4  91 N6        30.40S WCI  -4
MACKINAC ISLAN MOCLDY    12   7  78 NE10      30.40R WCI  -1
NEWBERRY       FAIR       5   4  96 N5        30.40S WCI  -4
S. S. MARIE    FAIR      10   3  73 NE3       30.41R
MUNISING         N/A      4   2  91 S6        30.45R WCI  -7
$$
MIZ004>006-011>014-085-161100-
CENTRAL UPPER MICHIGAN

CITY           SKY/WX    TMP DP  RH WIND       PRES   REMARKS
MANISTIQUE     FAIR       2   0  94 N3        30.42S
ESCANABA       FAIR       6   3  87 NW7       30.45R WCI  -6
MENOMINEE      FAIR       8   6  92 N8        30.45R WCI  -4
SAWYER-GWINN   LGT SNOW   1  -3  84 CALM      30.40S
$$
MIZ001>003-009>011-084-161100-
WESTERN UPPER MICHIGAN

CITY           SKY/WX    TMP DP  RH WIND       PRES   REMARKS
IRON MOUNTAIN  MOCLDY     2  -3  80 CALM      30.40S
HOUGHTON       LGT SNOW  19  13  77 N13       30.45S WCI   6
COPPER HARBOR    N/A     21  16  81 E16       30.48R WCI   7
IRONWOOD       LGT SNOW  12  10  92 CALM      30.48S FOG
$$

ABBREVIATIONS USED IN REMARKS
   TC - TEMPERATURE IN CELSIUS
  WCI - WIND CHILL INDEX
   HX - HEAT INDEX
  VSB - VISIBILITY





USA.gov is the U.S. government's official web portal to all federal, state and local government web resources and services.